EW4261 Weather Reports


time (UTC)temp
C
wind
direction
speed
KPH
gust
KPH
rain 1hr
cm
rain 24hr
cm
rain mn
cm
humidity
%
barometer
mb
20260509211521 31 174 0.0 4.8 0.00 0.00 0.00 68 1007.2
20260509210023 30 131 0.0 4.8 0.00 0.00 0.00 69 1007.4
20260509204518 31 68 0.0 8.0 0.00 0.00 0.00 68 1007.7
20260509203022 32 25 6.4 14.5 0.00 0.00 0.00 65 1007.9
20260509201517 32 230 1.6 9.7 0.00 0.00 0.00 64 1008.0
20260509200021 32 128 0.0 9.7 0.00 0.00 0.00 67 1008.0
20260509194513 31 313 0.0 4.8 0.00 0.00 0.00 70 1008.1
20260509193008 30 264 4.8 11.3 0.00 0.00 0.00 71 1008.5
20260509191505 31 169 0.0 6.4 0.00 0.00 0.00 72 1008.7
20260509190003 30 69 1.6 11.3 0.00 0.00 0.00 71 1008.9
20260509184502 30 238 3.2 8.0 0.00 0.00 0.00 71 1008.9
20260509183003 31 242 0.0 16.1 0.00 0.00 0.00 71 1009.1
20260509181615 30 59 1.6 6.4 0.00 0.00 0.00 73 1009.3
20260509180058 30 263 1.6 9.7 0.00 0.00 0.00 75 1009.7
20260509174555 30 332 3.2 12.9 0.00 0.00 0.00 74 1009.8
20260509173101 30 323 3.2 8.0 0.00 0.00 0.00 75 1009.9
20260509171557 29 299 3.2 8.0 0.00 0.00 0.00 75 1009.8
20260509170052 28 312 0.0 4.8 0.00 0.00 0.00 77 1009.7
20260509164551 28 302 6.4 11.3 0.00 0.00 0.00 78 1009.9
20260509163044 28 243 0.0 4.8 0.00 0.00 0.00 78 1010.0
20260509161541 28 198 0.0 4.8 0.00 0.00 0.00 80 1010.1
20260509160039 27 167 6.4 14.5 0.00 0.00 0.00 82 1010.1
20260509154535 27 159 6.4 19.3 0.00 0.00 0.00 88 1009.8
20260509153031 26 206 3.2 11.3 0.00 0.00 0.00 97 1010.0
20260509151526 24 222 4.8 9.7 0.00 0.00 0.00 99 1009.8
20260509150025 23 193 3.2 8.0 0.00 0.00 0.00 99 1009.7
20260509144529 23 248 1.6 8.0 0.00 0.00 0.00 99 1009.9
20260509143022 23 230 3.2 6.4 0.00 0.00 0.00 99 1009.9
20260509141520 23 198 0.0 3.2 0.00 0.00 0.00 99 1009.8
20260509140018 23 167 3.2 6.4 0.00 0.00 0.00 99 1009.5
20260509133013 22 208 0.0 3.2 0.00 0.00 0.00 99 1010.2
20260509131511 22 208 0.0 3.2 0.00 0.00 0.00 99 1010.1
20260509130012 22 235 0.0 0.0 0.00 0.03 0.00 99 1010.0
20260509124509 22 235 0.0 0.0 0.00 0.03 0.00 99 1009.9
20260509123008 22 235 0.0 0.0 0.00 0.03 0.00 99 1009.9
20260509121506 22 235 0.0 0.0 0.00 0.03 0.00 99 1009.9
20260509120006 22 235 0.0 3.2 0.00 0.05 0.00 99 1009.8
20260509114504 22 234 0.0 6.4 0.00 0.05 0.00 98 1009.6
20260509113002 22 285 0.0 0.0 0.00 0.05 0.00 99 1009.6
20260509111502 22 69 0.0 0.0 0.00 0.05 0.00 98 1009.9
20260509110002 22 69 0.0 0.0 0.00 1.32 0.00 98 1009.9
20260509104501 22 69 0.0 0.0 0.00 1.32 0.00 98 1009.7
20260509103109 22 69 0.0 3.2 0.00 1.32 0.00 98 1009.8
20260509101601 22 134 0.0 0.0 0.00 1.32 0.00 98 1009.7
20260509094557 22 5 0.0 0.0 0.00 1.32 0.00 98 1009.3
20260509093059 22 5 0.0 0.0 0.00 1.32 0.00 98 1009.3
20260509091557 22 5 0.0 0.0 0.00 1.32 0.00 98 1009.6
20260509090056 22 5 0.0 0.0 0.00 1.32 0.00 98 1009.6
20260509084558 22 5 0.0 0.0 0.00 1.32 0.00 98 1009.4
20260509083054 22 9 0.0 0.0 0.00 1.32 0.00 98 1009.8
20260509081554 22 9 0.0 3.2 0.00 1.32 0.00 98 1010.0
20260509080057 22 169 1.6 4.8 0.00 1.32 0.00 98 1009.8
20260509074553 22 169 0.0 0.0 0.00 1.32 0.00 98 1009.9
20260509073052 22 169 0.0 0.0 0.00 1.32 0.00 98 1009.8
20260509071552 22 171 1.6 8.0 0.00 1.32 0.00 98 1009.6
20260509070053 22 136 6.4 12.9 0.00 1.32 0.00 98 1009.4
20260509064555 22 148 9.7 16.1 0.00 1.32 0.00 98 1009.3
20260509063048 22 165 6.4 12.9 0.00 1.32 0.00 98 1009.5
20260509061549 22 163 8.0 14.5 0.00 1.32 0.00 98 1009.5
20260509060048 22 151 6.4 12.9 0.00 1.32 0.00 98 1010.0
20260509054549 22 126 4.8 17.7 0.00 1.32 0.00 97 1009.8
20260509053044 22 153 8.0 16.1 0.00 1.32 0.00 97 1009.7
20260509051542 22 138 8.0 16.1 0.00 1.32 0.00 97 1009.4
20260509050045 22 142 8.0 14.5 0.00 1.32 1.32 97 1009.8
20260509044540 22 148 3.2 16.1 0.00 1.32 1.32 97 1009.9
20260509043039 22 98 6.4 12.9 0.00 1.32 1.32 96 1009.8
20260509041538 22 138 4.8 11.3 0.00 1.32 1.32 96 1009.9
20260509040041 22 150 8.0 14.5 0.00 1.32 1.32 96 1009.7
20260509034542 22 109 6.4 14.5 0.00 1.32 1.32 96 1009.6
20260509033036 22 132 6.4 11.3 0.00 1.32 1.32 96 1009.8
20260509031536 22 132 9.7 16.1 0.00 1.32 1.32 95 1009.6
20260509030036 22 146 9.7 16.1 0.00 1.32 1.32 95 1009.5
20260509024535 22 136 9.7 16.1 0.00 1.32 1.32 95 1009.2
20260509023038 22 136 9.7 16.1 0.00 1.32 1.32 94 1009.0
20260509021535 22 146 12.9 19.3 0.00 1.32 1.32 93 1008.9
20260509020037 23 119 6.4 14.5 0.00 1.32 1.32 93 1008.8
20260509014542 23 118 8.0 22.5 0.00 1.32 1.32 92 1008.8
20260509013041 23 123 8.0 14.5 0.00 1.32 1.32 91 1008.7
20260509011535 23 150 8.0 19.3 0.00 1.32 1.32 90 1008.8
20260509010032 23 138 9.7 14.5 0.00 1.32 1.32 90 1008.6
20260509004531 24 107 6.4 14.5 0.00 1.32 1.32 89 1008.4
20260509003034 24 127 6.4 16.1 0.00 1.32 1.32 88 1008.4
20260509001531 24 127 9.7 16.1 0.00 1.32 1.32 88 1008.4
20260509000030 25 125 8.0 14.5 0.00 1.32 1.32 88 1008.4
20260508234529 25 119 9.7 16.1 0.00 1.32 1.32 87 1008.5
20260508233033 25 80 4.8 8.0 0.00 1.32 1.32 87 1008.5
20260508231528 25 113 4.8 9.7 0.00 1.32 1.32 86 1008.8
20260508230027 25 112 4.8 9.7 0.00 1.32 1.32 86 1008.7
20260508224526 25 108 3.2 11.3 0.00 1.32 1.32 86 1008.8
20260508223027 25 123 3.2 9.7 0.00 1.32 1.32 85 1008.7
20260508221526 25 90 6.4 12.9 0.00 1.32 1.32 85 1008.5
20260508220024 25 140 4.8 9.7 0.00 1.32 1.32 85 1008.8
20260508214527 25 85 11.3 16.1 0.00 1.32 1.32 83 1008.7
20260508213021 25 134 6.4 11.3 0.00 1.32 1.32 84 1008.9